Charlottesville, VA

6:41 PM EDT on April 25, 2017 (GMT -0400)
Charlottesville-Albemarle

Weather History for KCHO - September, 2012

Change the Weather History Date:

Sunday, September 9, 2012

  Actual Average Record
Temperature  
Mean Temperature 66 °F 69 °F  
Max Temperature 77 °F 81 °F 99 °F (1941)
Min Temperature 55 °F 58 °F 43 °F (1918)
Degree Days  
Heating Degree Days 0 1  
Month to date heating degree days 0 1  
Since 1 July heating degree days 0 4  
Cooling Degree Days 1 5  
Month to date cooling degree days 99 53  
Year to date cooling degree days 1551 963  
Growing Degree Days 16 (Base 50)    
Moisture  
Dew Point 53 °F    
Average Humidity 65    
Maximum Humidity 93    
Minimum Humidity 36    
Precipitation  
Precipitation 0.00 in 0.10 in 0.17 in (2001)
Month to date precipitation 0.92 0.90  
Year to date precipitation 27.50 29.04  
Sea Level Pressure  
Sea Level Pressure 29.90 in    
Wind  
Wind Speed 2 mph (NNW)    
Max Wind Speed 8 mph    
Max Gust Speed 14 mph    
Visibility 10 miles    
Events      
T = Trace of Precipitation, MM = Missing Value Source: NWS Daily Summary

Daily Weather History Graph

Daily Weather History Graph

Search for Another Location

Airport or City:

Trip Planner

Search our weather history database for the weather conditions in past years. The results will help you decide how hot, cold, wet, or windy it might be!

Date:

Astronomy

Sep. 09, 2012 Rise Set
Actual Time 6:50 AM EDT 7:30 PM EDT
Civil Twilight 6:24 AM EDT 7:57 PM EDT
Nautical Twilight 5:52 AM EDT 8:28 PM EDT
Astronomical Twilight 5:20 AM EDT 9:00 PM EDT
Moon 12:22 AM EDT (9/9) 3:10 PM EDT (9/9)
Length of Visible Light 13h 32m
Length of Day
12h 39m
Last Quarter, 39% of the Moon is Illuminated
Sep 9
Last Quarter
Sep 15
New
Sep 22
First Quarter
Sep 29
Full
Oct 8
Last Quarter

Hourly Weather History & Observations

Time (EDT) Temp. Dew Point Humidity Pressure Visibility Wind Dir Wind Speed Gust Speed Precip Events Conditions
12:53 AM 64.9 °F 59.0 °F 81% 29.87 in 10.0 mi Calm Calm - N/A   Overcast
1:53 AM 62.1 °F 55.9 °F 80% 29.86 in 10.0 mi NW 3.5 mph - N/A   Scattered Clouds
2:53 AM 62.1 °F 53.1 °F 72% 29.85 in 10.0 mi North 4.6 mph - N/A   Mostly Cloudy
3:53 AM 57.9 °F 54.0 °F 87% 29.85 in 10.0 mi NW 3.5 mph - N/A   Partly Cloudy
4:53 AM 57.9 °F 53.1 °F 84% 29.85 in 10.0 mi Calm Calm - N/A   Partly Cloudy
5:53 AM 55.9 °F 53.1 °F 90% 29.86 in 10.0 mi Calm Calm - N/A   Clear
6:53 AM 57.2 °F 53.6 °F 88% 29.89 in 10.0 mi Calm Calm - N/A   Clear
7:53 AM 60.1 °F 55.0 °F 83% 29.91 in 10.0 mi Calm Calm - N/A   Clear
8:53 AM 64.0 °F 54.0 °F 70% 29.90 in 10.0 mi SSE 3.5 mph - N/A   Clear
9:53 AM 68.0 °F 55.0 °F 63% 29.92 in 10.0 mi Calm Calm - N/A   Clear
10:53 AM 71.1 °F 54.0 °F 55% 29.93 in 10.0 mi Calm Calm - 0.01 in   Clear
11:53 AM 73.0 °F 52.0 °F 48% 29.92 in 10.0 mi Calm Calm - N/A   Clear
12:53 PM 75.9 °F 53.1 °F 45% 29.91 in 10.0 mi Calm Calm - N/A   Partly Cloudy
1:53 PM 75.9 °F 46.9 °F 36% 29.89 in 10.0 mi NNW 5.8 mph - N/A   Scattered Clouds
2:53 PM 77.0 °F 51.1 °F 40% 29.87 in 10.0 mi West 3.5 mph - N/A   Partly Cloudy
3:53 PM 75.9 °F 53.1 °F 45% 29.87 in 10.0 mi North 5.8 mph - N/A   Mostly Cloudy
4:53 PM 77.0 °F 53.1 °F 43% 29.87 in 10.0 mi NNW 3.5 mph - N/A   Scattered Clouds
5:53 PM 72.0 °F 52.0 °F 49% 29.89 in 10.0 mi NNW 4.6 mph - N/A   Scattered Clouds
6:53 PM 71.1 °F 52.0 °F 51% 29.90 in 10.0 mi NNW 3.5 mph - N/A   Scattered Clouds
7:53 PM 66.0 °F 51.1 °F 59% 29.92 in 10.0 mi NW 4.6 mph - N/A   Clear
8:53 PM 63.0 °F 50.0 °F 63% 29.96 in 10.0 mi NNW 3.5 mph - N/A   Clear
9:53 PM 64.0 °F 48.9 °F 58% 29.97 in 10.0 mi NW 3.5 mph - N/A   Clear
10:53 PM 61.0 °F 52.0 °F 72% 29.99 in 10.0 mi Calm Calm - N/A   Scattered Clouds
11:53 PM 60.1 °F 51.1 °F 72% 29.99 in 10.0 mi Calm Calm - N/A   Clear